Weather History for Beaumont, TX

Change the Weather History Date:

Monday, April 22, 2013

  Actual Average Record
Temperature  
Mean Temperature 66 °F 70 °F  
Max Temperature 78 °F 79 °F 89 °F (2006)
Min Temperature 53 °F 61 °F 43 °F (1931)
Degree Days  
Heating Degree Days 0 1  
Month to date heating degree days 65 37  
Since 1 July heating degree days 1238 1398  
Cooling Degree Days 1 6  
Month to date cooling degree days 62 93  
Year to date cooling degree days 135 174  
Growing Degree Days 15 (Base 50)    
Moisture  
Dew Point 54 °F    
Average Humidity 66    
Maximum Humidity 93    
Minimum Humidity 38    
Precipitation  
Precipitation 0.00 in 0.12 in 2.11 in (1974)
Month to date precipitation 5.17 2.23  
Year to date precipitation 17.80 14.60  
Snow  
Snow 0.00 in 0.00 in 0.00 in ()
Month to date snowfall 0.0 0.0  
Since 1 July snowfall 0.0 T  
Snow Depth 0.00 in    
Sea Level Pressure  
Sea Level Pressure 30.06 in    
Wind  
Wind Speed 7 mph (East)    
Max Wind Speed 14 mph    
Max Gust Speed 20 mph    
Visibility 10 miles    
Events      
T = Trace of Precipitation, MM = Missing Value Source: NWS Daily Summary

Daily Weather History Graph

Daily Weather History Graph

Search for Another Location

Airport:

Trip Planner

Search our weather history database for the weather conditions in past years. The results will help you decide how hot, cold, wet, or windy it might be!

Date:

Astronomy

Apr. 22, 2013 Rise Set
Actual Time 6:41 AM CDT 7:47 PM CDT
Civil Twilight 6:16 AM CDT 8:12 PM CDT
Nautical Twilight 5:47 AM CDT 8:42 PM CDT
Astronomical Twilight 5:16 AM CDT 9:12 PM CDT
Moon 4:49 PM CDT (4/22) 4:21 AM CDT (4/22)
Length of Visible Light 13h 56m
Length of Day
13h 06m
Waxing Gibbous, 88% of the Moon is Illuminated
Apr 22
Waxing Gibbous
Apr 25
Full
May 2
Last Quarter
May 9
New
May 17
First Quarter

Hourly Weather History & Observations

Time (CDT) Temp. Dew Point Humidity Pressure Visibility Wind Dir Wind Speed Gust Speed Precip Events Conditions
12:53 AM 55.9 °F 54.0 °F 93% 30.12 in 10.0 mi Calm Calm - N/A   Clear
1:53 AM 55.0 °F 54.0 °F 96% 30.12 in 9.0 mi NW 4.6 mph - N/A   Clear
2:53 AM 57.0 °F 55.0 °F 93% 30.11 in 7.0 mi NW 4.6 mph - N/A   Mostly Cloudy
3:53 AM 57.9 °F 55.9 °F 93% 30.09 in 9.0 mi NNW 3.5 mph - N/A   Mostly Cloudy
4:13 AM 59.0 °F 57.2 °F 94% 30.09 in 9.0 mi ENE 3.5 mph - N/A   Overcast
4:31 AM 57.2 °F 55.4 °F 94% 30.09 in 10.0 mi Calm Calm - N/A   Scattered Clouds
4:53 AM 55.9 °F 54.0 °F 93% 30.09 in 9.0 mi NNE 4.6 mph - N/A   Clear
5:53 AM 57.0 °F 54.0 °F 89% 30.09 in 10.0 mi NNE 5.8 mph - N/A   Clear
6:53 AM 53.1 °F 52.0 °F 96% 30.10 in 7.0 mi North 4.6 mph - N/A   Clear
7:53 AM 59.0 °F 54.0 °F 83% 30.11 in 10.0 mi NE 4.6 mph - N/A   Clear
8:53 AM 64.9 °F 53.1 °F 65% 30.11 in 10.0 mi ENE 4.6 mph - N/A   Clear
9:53 AM 70.0 °F 54.0 °F 57% 30.12 in 10.0 mi Variable 6.9 mph - N/A   Clear
10:53 AM 72.0 °F 48.0 °F 43% 30.12 in 10.0 mi ESE 8.1 mph - N/A   Clear
11:53 AM 73.9 °F 48.9 °F 41% 30.12 in 10.0 mi ESE 8.1 mph 17.3 mph N/A   Clear
12:53 PM 73.9 °F 52.0 °F 46% 30.09 in 10.0 mi East 9.2 mph - N/A   Clear
1:53 PM 75.9 °F 50.0 °F 40% 30.07 in 10.0 mi East 8.1 mph - N/A   Clear
2:53 PM 75.9 °F 48.9 °F 38% 30.04 in 10.0 mi SE 8.1 mph - N/A   Clear
3:53 PM 77.0 °F 52.0 °F 42% 30.01 in 10.0 mi Variable 3.5 mph - N/A   Clear
4:53 PM 75.0 °F 54.0 °F 48% 29.99 in 10.0 mi SSE 8.1 mph - N/A   Clear
5:53 PM 73.9 °F 54.0 °F 50% 29.99 in 10.0 mi ESE 11.5 mph - N/A   Clear
6:53 PM 70.0 °F 55.9 °F 61% 29.99 in 10.0 mi SSE 11.5 mph - N/A   Clear
7:53 PM 63.0 °F 55.9 °F 78% 29.99 in 10.0 mi SE 6.9 mph - N/A   Clear
8:53 PM 61.0 °F 57.0 °F 87% 29.99 in 10.0 mi South 4.6 mph - N/A   Clear
9:53 PM 60.1 °F 57.0 °F 90% 30.00 in 10.0 mi SSE 6.9 mph - N/A   Clear
10:53 PM 59.0 °F 57.0 °F 93% 29.99 in 10.0 mi SSE 5.8 mph - N/A   Clear
11:53 PM 60.1 °F 57.0 °F 90% 29.99 in 10.0 mi SSE 5.8 mph - N/A   Clear